Home   Weather   Pittsburgh   Past weeks

Flag for USA Past Weather in Pittsburgh, Pennsylvania, USA — Yesterday and Last 2 Weeks

Now
37 °F

Overcast.


Feels Like: 31 °F
Forecast: 26 / 34 °F
Wind: 8 mph from West

Location: Allegheny County Airport

Current Time: Dec 7, 2016 at 9:17:54 pm

Latest Report: Dec 7, 2016 at 7:53 pm


Visibility: 10 mi

Pressure: 30.10 "Hg

Humidity: 50%

Dew Point: 20 °F

Location of PittsburghLocation

Past Weather in Pittsburgh — Graph

°F

Pittsburgh Temperature Yesterday

Maximum temperature yesterday: 42 °F (at 11:53 pm)
Minimum temperature yesterday: 32 °F (at 12:53 am)
Average temperature yesterday: 37 °F

High & Low Weather Summary for the Past Weeks

 TemperatureHumidityPressure
High63 °F (Nov 29, 1:53 pm)93% (Dec 5, 12:53 am)30.37 "Hg (Dec 5, 12:53 am)
Low26 °F (Nov 23, 7:53 am)32% (Nov 23, 2:53 pm)29.51 "Hg (Nov 30, 8:02 pm)
Average41 °F70%30.06 "Hg
* Reported Nov 22 7:53 pm — Dec 7 7:53 pm, Pittsburgh, Weather by CustomWeather, © 2016

Note: Actual official high and low records may vary slightly from our data, if they occured in-between our weather recording intervals... More about our weather records

Advertising

Pittsburgh Weather History for the Previous 24 Hours

Scroll right to see more
 ConditionsComfort  
Time TempWeatherWind HumidityBarometerVisibility
7:53 pm
Wed, Dec 7
37 °FOvercast.8 mph50%30.10 "Hg10 mi
6:53 pm37 °FOvercast.7 mph50%30.10 "Hg10 mi
5:53 pm38 °FOvercast.7 mph48%30.10 "Hg10 mi
4:53 pm38 °FPassing clouds.9 mph46%30.10 "Hg10 mi
3:53 pm39 °FPartly sunny.13 mph45%30.09 "Hg10 mi
2:53 pm39 °FSunny.16 mph45%30.09 "Hg10 mi
1:53 pm40 °FSunny.12 mph47%30.06 "Hg10 mi
12:53 pm39 °FSunny.9 mph53%30.07 "Hg10 mi
11:53 am37 °FSunny.14 mph60%30.09 "Hg10 mi
10:53 am36 °FSunny.10 mph64%30.11 "Hg10 mi
9:53 am35 °FPassing clouds.13 mph72%30.11 "Hg8 mi
8:53 am34 °FPartly sunny.8 mph76%30.09 "Hg7 mi
7:53 am34 °FOvercast.9 mph79%30.08 "Hg6 mi
6:53 am34 °FPassing clouds.8 mph79%30.06 "Hg8 mi
5:53 am37 °FOvercast.8 mph76%30.04 "Hg8 mi
4:53 am37 °FOvercast.10 mph76%30.02 "Hg9 mi
3:53 am37 °FOvercast.9 mph79%29.99 "Hg9 mi
2:53 am37 °FOvercast.15 mph86%29.97 "Hg8 mi
1:53 am39 °FFog.15 mph89%29.91 "Hg3 mi
12:53 am41 °FLow clouds.14 mph89%29.87 "Hg7 mi
11:53 pm
Tue, Dec 6
42 °FLow clouds.9 mph89%29.84 "Hg7 mi
10:53 pm40 °FFog.8 mph89%29.81 "Hg2 mi
9:53 pm39 °FFog.7 mph93%29.80 "Hg2 mi
Weather by CustomWeather, © 2016

See weather overviewHow to use our weather pages